[[{"header":{"parameterUnit":"m.s-1","parameterCategory":1,"la1":30.2991,"la2":30.254,"lo1":-89.0895,"lo2":-89.0444,"dy":0.0017,"dx":0.0017,"nx":28,"ny":28,"refTime":"2025-12-26T09:00:00:Z","depth":0,"parameterNumber":2,"parameterNumberName":"U-component_of_WINDS"},"data":[0,0,0,0,0,0,0,0,0,0,0,0,0,0,0,0,0,0,0,0,0,0,0,0,0,0,0,0,0,0,0,0,0,0,0,0,0,0,0,0,0,0,0,0,0,0,0,0,0,0,0,0,0,0,0,0,0,0,0.4672,0.4672,0,0.4683,0.4683,0.4683,0.4682,0.4682,0.4682,0.4682,0.4693,0.4693,0.4694,0,0,0,0,0,0,0,0,0,0,0,0,0,0.4652,0.4652,0.4672,0.4672,0.4672,0.4683,0.4683,0.4683,0.4682,0.4682,0.4682,0.4682,0.4693,0.4693,0.4694,0,0,0,0,0,0,0,0,0,0,0,0,0,0.4661,0.4652,0.4672,0.4673,0.4673,0.4683,0.4683,0.4683,0.4682,0.4682,0.4682,0.4682,0.4693,0.4693,0.4694,0.4703,0,0,0.4696,0.4696,0,0,0,0,0,0,0,0,0.4661,0.4662,0.4673,0.4673,0.4673,0.4681,0.468,0.469,0.4682,0.4679,0.4682,0.4682,0.4689,0.469,0.4693,0.4704,0.4704,0.4696,0.4696,0.4697,0.4697,0,0,0,0,0,0,0,0.466,0.4662,0.4676,0.4673,0.4673,0.4674,0.4675,0.4682,0.4685,0.4679,0.4679,0.4681,0.4689,0.4692,0.4693,0.4704,0.4696,0.4697,0.4697,0.4697,0.4725,0.4726,0,0,0,0,0,0,0.4659,0.4661,0.4676,0.4677,0.4666,0.4674,0.4675,0.4679,0.4685,0.4686,0.4681,0.468,0.4691,0.4692,0.4693,0.4706,0.4697,0.4697,0.4698,0.4725,0.4725,0.4726,0,0,0,0,0,0,0.4659,0.466,0.4676,0.4669,0.4671,0.4675,0.4679,0.4679,0.4682,0.4686,0.4687,0.4683,0.4691,0.4692,0.4701,0.4706,0.4698,0.4698,0.4725,0.4725,0.4726,0.473,0,0,0,0,0,0,0.4658,0.466,0.4663,0.4669,0.4671,0.4683,0.4679,0.468,0.4683,0.4683,0.4689,0.4689,0.4691,0.47,0.4702,0.4707,0.4699,0.4724,0.4725,0.4725,0.4729,0.473,0.4731,0,0,0,0,0,0.4657,0.4664,0.4663,0.4665,0.4675,0.4683,0.4684,0.4686,0.4683,0.4687,0.469,0.4689,0.4705,0.4701,0.4703,0.4708,0.4724,0.4725,0.4725,0.4729,0.473,0.4731,0,0,0,0,0,0,0.4658,0.4664,0.4664,0.4672,0.4677,0.4683,0.4687,0.4687,0.4693,0.4692,0.4694,0.4695,0.4705,0.4707,0.4702,0.4718,0.4714,0.4715,0.4716,0.4718,0.4719,0.4718,0.4699,0,0,0,0,0,0.4659,0.4665,0.467,0.4677,0.468,0.4683,0.4687,0.4688,0.4693,0.4695,0.4698,0.4703,0.471,0.4714,0.472,0.473,0.4732,0.4735,0.4736,0.4736,0.4737,0.4745,0.4746,0.4728,0.4728,0.4728,0,0,0.4662,0.4666,0.4669,0.4677,0.4681,0.4688,0.4685,0.4691,0.4696,0.4695,0.4704,0.4707,0.4713,0.4723,0.4728,0.4726,0.4743,0.4737,0.4738,0.4739,0.4746,0.4747,0.4749,0.4729,0.4729,0.4729,0,0,0.4669,0.4673,0.4679,0.4684,0.469,0.4692,0.4694,0.47,0.4702,0.4711,0.4711,0.4718,0.4728,0.4733,0.4737,0.4748,0.4748,0.475,0.4756,0.4763,0.4764,0.4765,0.4771,0.4773,0.4751,0.4751,0.4751,0,0.4671,0.4681,0.4683,0.469,0.4694,0.4695,0.4702,0.4706,0.4714,0.4717,0.4715,0.4729,0.4733,0.4745,0.4748,0.4751,0.4753,0.4749,0.4764,0.4765,0.4766,0.4771,0.4773,0.4752,0.4751,0.4751,0.4751,0,0.4684,0.469,0.4695,0.4704,0.4708,0.4715,0.4719,0.4724,0.4725,0.4728,0.4738,0.4743,0.4751,0.4754,0.4755,0.4766,0.4765,0.4763,0.4759,0.4768,0.4773,0.4775,0.4752,0.4752,0.4752,0.4752,0,0,0.4691,0.4702,0.4703,0.4708,0.4716,0.4721,0.4729,0.4737,0.4742,0.4747,0.4755,0.4765,0.4764,0.4768,0.4769,0.4775,0.4786,0.4773,0.4773,0.4776,0.4801,0.4803,0.4805,0.4786,0.4786,0.4787,0.4801,0,0.47,0.4714,0.4717,0.4729,0.4736,0.4738,0.4745,0.4751,0.4754,0.4761,0.4765,0.4773,0.477,0.4773,0.4779,0.4783,0.4791,0.4782,0.4794,0.4794,0.4793,0.4807,0.4808,0.4821,0.4802,0.4803,0.4803,0,0.4712,0.4719,0.4732,0.4741,0.4744,0.475,0.4759,0.4765,0.4772,0.4775,0.4781,0.4782,0.4791,0.4787,0.48,0.4794,0.4799,0.4802,0.4803,0.4804,0.4799,0.4809,0.4825,0.4828,0.4806,0.4806,0.4805,0,0.4717,0.473,0.474,0.4743,0.4753,0.4758,0.4762,0.4769,0.4775,0.4782,0.4786,0.4795,0.4799,0.4806,0.481,0.4807,0.4824,0.482,0.4827,0.4827,0.483,0.483,0.4848,0.4833,0.4833,0.4833,0.4833,0,0.4727,0.4735,0.4742,0.4748,0.4758,0.4762,0.4772,0.4776,0.4783,0.4791,0.4793,0.48,0.4804,0.4813,0.4816,0.4827,0.4829,0.4832,0.4833,0.4832,0.4832,0.4836,0.4835,0.4833,0.4833,0.4833,0.4833,0,0.4734,0.4739,0.475,0.4759,0.4762,0.4769,0.4777,0.4783,0.4788,0.4797,0.48,0.4807,0.4817,0.4822,0.4834,0.4836,0.4849,0.4849,0.4847,0.4847,0.4855,0.4854,0.4876,0.488,0.4861,0.4861,0.4862,0,0.474,0.4746,0.4757,0.4762,0.4767,0.4775,0.4781,0.4786,0.4792,0.4802,0.4808,0.4818,0.4827,0.4843,0.4849,0.4859,0.4859,0.4866,0.4861,0.486,0.4861,0.486,0.4862,0.4867,0.4867,0.4868,0.4868,0,0.475,0.4753,0.4761,0.4771,0.4778,0.4786,0.4794,0.4798,0.4805,0.4812,0.4822,0.4829,0.4842,0.4853,0.4863,0.4868,0.487,0.487,0.4872,0.4871,0.487,0.4872,0.485,0.4869,0.4869,0.4869,0.4869,0.4869,0.4758,0.4764,0.4773,0.4783,0.4789,0.4797,0.4804,0.481,0.4819,0.483,0.4833,0.4845,0.4854,0.4868,0.4874,0.4884,0.4882,0.4885,0.4886,0.4887,0.4888,0.4869,0.4885,0.4885,0.4885,0.4885,0.4885,0,0.4769,0.4775,0.4784,0.4796,0.4804,0.4805,0.4814,0.4821,0.4831,0.4839,0.4848,0.4861,0.4872,0.488,0.4891,0.4898,0.4899,0.49,0.49,0.4902,0.4888,0.4885,0.49,0.49,0.49,0.49,0.49,0.49,0.4776,0.4787,0.4792,0.4807,0.4814,0.4825,0.4831,0.4838,0.4845,0.486,0.4869,0.4875,0.4883,0.4896,0.4906,0.4908,0.4913,0.4915,0.4917,0.4904,0.4902,0.4901,0.4898,0.4915,0.4915,0.493,0.493,0.493]},{"header":{"parameterUnit":"m.s-1","parameterCategory":1,"la1":30.2991,"la2":30.254,"lo1":-89.0895,"lo2":-89.0444,"dy":0.0017,"dx":0.0017,"nx":28,"ny":28,"refTime":"2025-12-26T09:00:00:Z","depth":0,"parameterNumber":3,"parameterNumberName":"V-component_of_WINDS"},"data":[0,0,0,0,0,0,0,0,0,0,0,0,0,0,0,0,0,0,0,0,0,0,0,0,0,0,0,0,0,0,0,0,0,0,0,0,0,0,0,0,0,0,0,0,0,0,0,0,0,0,0,0,0,0,0,0,0,0,2.5332,2.5332,0,2.5326,2.5326,2.5326,2.5312,2.5312,2.5312,2.5311,2.5302,2.5302,2.5302,0,0,0,0,0,0,0,0,0,0,0,0,0,2.5329,2.5329,2.5332,2.5332,2.5331,2.5326,2.5326,2.5326,2.5312,2.5312,2.5312,2.5311,2.5302,2.5302,2.5302,0,0,0,0,0,0,0,0,0,0,0,0,0,2.5327,2.5329,2.5332,2.5324,2.5323,2.5326,2.5326,2.5326,2.5312,2.5312,2.5311,2.5311,2.5302,2.5302,2.5302,2.5311,0,0,2.5302,2.5302,0,0,0,0,0,0,0,0,2.5327,2.5327,2.5325,2.5325,2.5324,2.5319,2.5322,2.5321,2.5312,2.5316,2.5311,2.5311,2.5308,2.5308,2.5307,2.531,2.531,2.5302,2.5302,2.5302,2.5302,0,0,0,0,0,0,0,2.5328,2.5328,2.5329,2.5325,2.5324,2.532,2.532,2.5321,2.5314,2.5316,2.5315,2.5315,2.5308,2.5307,2.5307,2.531,2.5302,2.5302,2.5302,2.5302,2.5321,2.5321,0,0,0,0,0,0,2.5329,2.5328,2.5329,2.5329,2.5325,2.5321,2.532,2.5321,2.5314,2.5313,2.5315,2.5314,2.5308,2.5307,2.5307,2.5317,2.5302,2.5302,2.5302,2.5321,2.5321,2.5322,0,0,0,0,0,0,2.5329,2.5329,2.533,2.5328,2.5328,2.5321,2.5323,2.5321,2.5321,2.5314,2.5312,2.5316,2.5307,2.5307,2.531,2.5317,2.5302,2.5302,2.532,2.5321,2.5321,2.5338,0,0,0,0,0,0,2.5329,2.5329,2.5333,2.5328,2.5328,2.5334,2.5323,2.5321,2.5322,2.532,2.5314,2.5313,2.5307,2.531,2.531,2.5317,2.5303,2.5319,2.532,2.5321,2.5337,2.5339,2.5341,0,0,0,0,0,2.5329,2.5337,2.5333,2.5333,2.5332,2.5334,2.5334,2.5328,2.5322,2.5325,2.5321,2.5313,2.5316,2.5311,2.5311,2.5317,2.5319,2.532,2.5321,2.5336,2.5339,2.5341,0,0,0,0,0,0,2.534,2.5336,2.5332,2.5338,2.5337,2.5332,2.5336,2.5331,2.533,2.5329,2.532,2.5319,2.5324,2.5321,2.5315,2.5326,2.5316,2.5317,2.5328,2.533,2.5333,2.5333,2.5303,0,0,0,0,0,2.5344,2.5347,2.5342,2.5348,2.5348,2.5342,2.5343,2.5338,2.5336,2.5335,2.5331,2.5328,2.5329,2.5329,2.5329,2.5336,2.5335,2.5341,2.5343,2.5345,2.5346,2.5351,2.5354,2.5325,2.5325,2.5325,0,0,2.535,2.5348,2.535,2.5351,2.5349,2.5352,2.5342,2.5345,2.5347,2.5335,2.5339,2.5336,2.5333,2.5339,2.5341,2.5336,2.5354,2.5346,2.5348,2.5348,2.5352,2.5355,2.5357,2.5326,2.5326,2.5326,0,0,2.5365,2.5363,2.5369,2.5368,2.5367,2.5363,2.5365,2.5361,2.5359,2.5363,2.5355,2.5357,2.5358,2.5356,2.5356,2.5372,2.5365,2.5372,2.5383,2.5388,2.539,2.5392,2.5399,2.5402,2.5373,2.5373,2.5373,0,2.5373,2.5378,2.5372,2.5377,2.5378,2.5369,2.5375,2.5374,2.5372,2.5373,2.5367,2.537,2.5366,2.5373,2.5377,2.5376,2.5378,2.5372,2.5391,2.5393,2.5394,2.5401,2.5403,2.5374,2.5373,2.5373,2.5373,0,2.5389,2.5392,2.5397,2.5398,2.5399,2.5404,2.5399,2.5401,2.5397,2.5393,2.5399,2.5395,2.5395,2.5396,2.5391,2.5402,2.5399,2.5392,2.5383,2.5398,2.5404,2.5406,2.5375,2.5375,2.5374,2.5374,0,0,2.5409,2.5408,2.541,2.5411,2.5409,2.5412,2.5417,2.5418,2.5421,2.542,2.5424,2.5426,2.542,2.542,2.5414,2.5419,2.5433,2.5412,2.5411,2.5417,2.5447,2.5453,2.5456,2.5429,2.5429,2.543,2.5448,0,2.5423,2.5433,2.5429,2.5439,2.5443,2.5435,2.544,2.544,2.5437,2.544,2.5436,2.5439,2.543,2.543,2.5434,2.5431,2.544,2.5429,2.5433,2.5433,2.5435,2.5459,2.5464,2.5482,2.545,2.545,2.5451,0,2.544,2.5443,2.5454,2.5454,2.5455,2.546,2.5462,2.5464,2.5464,2.5462,2.5462,2.5457,2.5462,2.5452,2.5459,2.5453,2.5454,2.5452,2.5453,2.5454,2.5443,2.5461,2.5487,2.549,2.5454,2.5454,2.5454,0,2.5456,2.5461,2.5469,2.547,2.547,2.5473,2.5473,2.5473,2.5474,2.5476,2.5477,2.5478,2.5479,2.548,2.5475,2.5469,2.5483,2.5473,2.5482,2.5482,2.5486,2.5486,2.5513,2.5485,2.5485,2.5485,2.5485,0,2.5472,2.5479,2.5476,2.5481,2.5489,2.5485,2.5493,2.5492,2.5492,2.5496,2.5489,2.5493,2.5486,2.5489,2.5485,2.5492,2.5492,2.5491,2.549,2.5492,2.5493,2.5493,2.5492,2.5486,2.5485,2.5485,2.5485,0,2.549,2.5488,2.5497,2.5497,2.5497,2.5503,2.5503,2.5507,2.5505,2.5511,2.5512,2.5509,2.5512,2.5508,2.551,2.5508,2.5518,2.5515,2.5519,2.5518,2.5528,2.5527,2.5558,2.5562,2.553,2.553,2.5531,0,2.5501,2.5507,2.5509,2.5512,2.5513,2.5518,2.5521,2.5517,2.5519,2.5521,2.5525,2.5529,2.5532,2.5538,2.5535,2.5538,2.5535,2.5545,2.5535,2.5538,2.5537,2.5537,2.5538,2.5548,2.5548,2.5548,2.5549,0,2.5522,2.5521,2.5526,2.5531,2.5535,2.5538,2.554,2.5543,2.5539,2.5542,2.5547,2.555,2.5554,2.5558,2.556,2.5559,2.5554,2.5552,2.5554,2.5557,2.556,2.556,2.5526,2.5551,2.5551,2.5551,2.5551,2.555,2.5537,2.5543,2.5546,2.5552,2.5554,2.5557,2.5562,2.5561,2.5566,2.557,2.5567,2.5573,2.5574,2.5577,2.5577,2.5582,2.5577,2.558,2.5581,2.5582,2.5584,2.5559,2.5582,2.5582,2.5581,2.5581,2.5581,0,2.5558,2.556,2.5566,2.5571,2.5576,2.5572,2.5575,2.5579,2.5585,2.5587,2.5591,2.5597,2.5602,2.56,2.5604,2.5608,2.5605,2.5609,2.5609,2.5609,2.5587,2.5586,2.5611,2.5611,2.5611,2.5611,2.5611,2.5611,2.557,2.558,2.558,2.5591,2.5593,2.5601,2.5603,2.5606,2.5608,2.5616,2.562,2.562,2.5621,2.5625,2.5629,2.5628,2.563,2.5635,2.5634,2.5613,2.5611,2.5608,2.5606,2.5635,2.5635,2.5655,2.5655,2.5656]}]]